This demonstration page uses our WeatherBlox Daily Observations layout. Learn more.

Left ArrowRight Arrow

39.12711, -84.51439

Hourly Observations for July 24, 2017

Temp ( °F °C ) Dew Point ( °F °C ) Humidity (%) Winds ( mph kmh ) Pressure ( in mb ) Visibility ( mi km ) Precip ( " mm )
12:53 am 00:53 Clear 71 21.7 70 21.1 96 96 N N/A 29.85 1011 10 16 N/A
1:53 am 01:53 Clear 69 20.6 69 20.6 100 100 N N/A 29.85 1011 10 16 N/A
2:53 am 02:53 Clear 68 20 68 20 100 100 S 3 6 29.84 1011 10 16 N/A
3:53 am 03:53 Clear 68 20 68 20 100 100 SSW 3 6 29.84 1011 9 14 N/A
4:53 am 04:53 Clear 68 20 68 20 100 100 N N/A 29.84 1011 9 14 N/A
5:53 am 05:53 Mostly Clear with Mist and Fog 66 18.9 66 18.9 100 100 S 3 6 29.85 1011 3 5 N/A
5:57 am 05:57 Partly Cloudy with Mist and Fog 67 19.4 67 19.4 100 100 SW 3 6 29.88 1012 2 3 N/A
6:05 am 06:05 Partly Cloudy with Mist and Fog 68 20 68 20 100 100 N N/A 29.88 1012 3 5 N/A
6:53 am 06:53 Sunny 71 21.7 70 21.1 96 96 SW 5 7 29.87 1011 10 16 N/A
7:53 am 07:53 Sunny 74 23.3 71 21.7 91 91 W 7 11 29.88 1012 10 16 N/A
8:53 am 08:53 Mostly Sunny 76 24.4 71 21.7 85 85 W 9 15 29.89 1012 10 16 N/A
9:53 am 09:53 Sunny 78 25.6 70 21.1 76 76 WNW 5 7 29.91 1013 10 16 N/A
10:53 am 10:53 Sunny 81 27.2 71 21.7 72 72 W 7 11 29.91 1013 10 16 N/A
11:53 am 11:53 Partly Cloudy 82 27.8 71 21.7 69 69 NW 12 19 29.91 1013 10 16 N/A
12:53 pm 12:53 Partly Cloudy 84 28.9 70 21.1 63 63 WNW 7 11 29.92 1013 10 16 N/A
1:53 pm 13:53 Partly Cloudy 84 28.9 68 20 59 59 W 9 15 29.92 1013 10 16 N/A
2:53 pm 14:53 Mostly Cloudy 85 29.4 68 20 57 57 N 8 13 29.92 1013 10 16 N/A
3:53 pm 15:53 Mostly Cloudy 83 28.3 66 18.9 57 57 NNW 9 15 29.92 1013 10 16 N/A
4:53 pm 16:53 Mostly Sunny 85 29.4 67 19.4 55 55 N 9 15 29.93 1014 10 16 N/A
5:53 pm 17:53 Mostly Sunny 84 28.9 67 19.4 57 57 NNW 12 19 29.93 1014 10 16 N/A
6:53 pm 18:53 Mostly Sunny 81 27.2 68 20 65 65 NNE 8 13 29.95 1014 10 16 N/A
7:53 pm 19:53 Mostly Sunny 80 26.7 67 19.4 64 64 N 9 15 29.96 1015 10 16 N/A
8:53 pm 20:53 Sunny 77 25 65 18.3 66 66 N 8 13 29.99 1016 10 16 N/A
9:53 pm 21:53 Clear 74 23.3 65 18.3 74 74 NNE 7 11 30.02 1017 10 16 N/A
10:53 pm 22:53 Clear 70 21.1 64 17.8 82 82 NE 7 11 30.05 1018 10 16 N/A
11:53 pm 23:53 Clear 68 20 63 17.2 84 84 ENE 6 9 30.07 1018 10 16 N/A

Powered by AerisWeather